STARLINK-36107, 66979

Orbit data source: Space-Track

STARLINK-36107, 66979 is a payload satellite owned by SpaceX/Seattle (US) in LEO that was launched on Mon, 08 Dec 2025 UTC via an FALCON 9 launch vehicle from the Air Force Eastern Test Range (AFETR). Payload-class satellites include a variety of spacecraft equipped with specific instruments for various scientific and technological missions. These include communications satellites like Starlink; space stations such as the ISS; scientific satellites like the Hubble; Earth observation satellites from companies like Planet Labs, Umbra, and HawkEye 360; GPS; miniature CubeSats for education and research; and military/defense satellites.

Loading next visibility...
Identifier
66979, 2025-288W
Orbit
LEO
Country
Flag of USUS
Related business
Manufacturer
SpaceX/Seattle
Mission
Operational Commercial Communications
Bus & Motor
STARLINK V2MO, Unknown motor
Mass
575 kg wet, ~530 kg dry
Launch date (UTC)
2025-12-08 (5 months ago)
Launch vehicle
FALCON 9
Launch site
Air Force Eastern Test Range (AFETR)
Object type
Payload
Rocket body
Debris
Shape & HBR
Box + 2 Pan, 17.7 m
Radar Cross Section
36.964 m²

Expand to show TLE details & history
Last TLE update: 10 hours ago

TLE from 10 hours ago
0 STARLINK-36107
1 66979U 25288W   26130.09307344  .00003449  00000-0  13483-3 0  9996
2 66979  43.0023  37.0712 0001577 280.4649  79.6025 15.27573870 24677
Epoch: 2026-05-10T02:14Z
TLE epoch observation values (Epoch: 2026-05-10T02:14:01.545Z)
Latitude
-0°
Longitude
135.66365°
Altitude
482.648 km
Speed
7.626 km/s
True Right ascension
02h 28m 17s
True Declination
0° 00' 00"
Sunlit
Object was in daylight at epoch
Visualization orbit readout
Latitude
Unknown
Longitude
Unknown
Altitude
Unknown
Speed
Unknown
Apparent Right ascension
Unknown
Apparent Declination
Unknown
Sunlit
N/A
Visualization observer readout
Local Sidereal Time
20:35:26
Azimuth
Unknown
Elevation
Unknown
Doppler factor
Unknown
Orbital elements
Apogee altitude
486.095 km
Perigee altitude
483.93 km
Semi-major axis
6,863.149 km
Eccentricity
0.00016
Inclination
43.0023°
RAAN
37.0712°
Arg. of periapsis
280.4649°
True anomaly
79.62027°
Mean anomaly
79.6025°
Eccentric anomaly
79.61139°
Mean motion
3.81732 °/min
Orbital period
94.31 mins
BSTAR
0.00013483
Loading maneuver chart data...
Computing Atmospheric mass density...
Loading historical data...
Loading historical data...
Loading historical data...
Loading historical data...
Loading historical data...
Loading historical data...
Loading historical data...

Documentation

Showing up to 5 results
|